Temp
3 3 3 3 4 5 6 5 -0 4 5 3 -1 -1 3 5 4 5 4 4 3 3 2 2 1 3 4 5 4 4 4 4 4 5 5 6 6 5 5 5 6 3 4 5
3 3 4 4 4 5 6 6 5 5 6 -1 -2 3 3 4 4 3 4 4 5 4 3 3 3 0 5 5 5 5 5 4 3 6 6 5 5 5 5 5 4 5 4 5
4 4 4 5 5 5 5 5 -1 5 5 2 1 3 3 4 4 4 4 4 4 4 4 3 4 1 5 5 6 6 6 5 4 4 5 5 4 5 5 3 4 5 4 5
5 5 5 5 6 5 5 4 0 1 -0 1 1 2 3 3 3 4 4 4 3 3 4 4 4 2 4 6 5 5 5 4 5 5 5 5 5 5 5 3 4 4 6 5
6 6 6 6 6 6 5 4 3 3 1 1 2 1 3 4 3 3 4 3 3 3 4 4 4 4 4 4 5 5 3 5 4 4 5 5 5 5 5 5 5 5 5 6
7 6 6 6 7 7 6 5 4 4 0 0 1 1 3 3 3 3 3 3 3 3 4 4 4 3 3 3 4 4 4 3 3 4 4 4 5 5 5 5 5 5 5 6
7 7 6 6 7 7 6 6 5 5 1 0 1 3 3 2 2 3 3 4 4 4 4 4 4 3 3 3 3 3 3 3 3 3 4 5 7 6 6 6 5 5 5 5
8 7 7 7 6 6 7 6 6 5 -0 1 2 2 2 2 3 2 3 3 4 4 4 3 4 3 5 5 3 2 2 2 4 3 3 5 6 6 5 5 6 5 5 5
7 7 7 7 7 6 6 6 6 6 4 1 3 2 2 1 1 1 3 4 4 4 2 3 5 3 5 5 4 1 1 1 3 2 3 6 7 5 6 6 6 4 5 4
5 6 7 7 7 7 7 6 6 5 5 4 4 2 2 2 1 0 1 3 4 4 2 3 1 3 3 3 4 4 2 2 2 3 3 4 4 5 6 7 7 5 5 5
3 5 5 6 7 7 6 6 6 5 5 4 4 4 4 3 3 1 2 2 2 -0 3 2 1 1 1 1 1 3 3 2 2 2 3 4 4 5 5 6 6 6 6 6
3 3 5 5 5 6 6 6 6 6 5 5 5 5 5 4 5 4 3 2 2 2 1 -1 -1 1 -5 -0 2 1 2 3 3 3 4 5 6 7 8 7 7 7 7 6
4 3 3 4 5 5 5 5 5 5 5 4 4 4 5 4 4 4 4 3 3 3 2 1 -1 1 -1 0 -1 1 1 1 2 4 4 3 7 7 7 7 8 8 8 7
4 4 4 3 3 4 5 5 5 5 4 3 4 4 3 4 4 4 4 3 3 3 2 1 -1 -0 1 -0 -0 -1 2 0 1 0 2 3 6 7 8 8 7 7 7 7
4 3 3 3 2 3 4 5 5 5 4 3 4 3 3 3 3 3 2 2 2 2 1 -1 -1 0 -1 -2 -3 -4 -0 -0 2 3 6 6 9 11 9 8 8 8 7 7
3 3 3 3 4 3 3 5 5 4 4 4 1 2 2 1 1 2 2 2 1 2 2 1 1 1 1 -2 -1 2 4 4 4 6 6 7 8 9 10 9 9 8 8 7
3 3 3 2 3 3 3 4 3 4 4 3 2 1 0 0 0 0 1 1 1 2 2 -1 -0 0 0 -3 -2 4 5 6 6 7 5 4 7 9 10 10 9 8 8 8
3 2 2 1 2 2 2 3 3 4 4 3 -3 -2 -0 -0 0 0 0 0 0 1 1 -1 -1 -1 -2 -2 0 5 6 5 6 6 5 6 7 7 8 8 7 7 7 7
2 2 2 1 1 1 3 3 4 4 4 3 -0 -4 -2 -1 -0 -0 -1 -0 -3 -1 -2 -2 -1 -2 -1 1 3 6 6 3 3 4 3 5 5 5 7 7 6 6 7 6
2 1 2 2 2 3 3 3 3 2 2 1 -1 0 -3 0 -1 -2 -2 -2 -2 -5 -2 -2 -3 -2 2 5 6 6 4 4 4 2 4 5 5 6 6 7 7 8 8 7
1 2 2 2 2 3 3 2 0 0 -1 1 0 1 -2 1 -3 -2 -0 -6 -5 -4 -2 -3 -3 -2 0 7 6 5 5 6 5 4 3 2 5 6 7 7 7 7 7 7
2 3 2 2 2 2 -1 -3 -2 -3 -0 -1 -1 -1 1 -0 1 -0 -3 -4 -7 -3 -3 -4 -3 -1 7 6 7 7 6 6 6 6 6 5 5 5 6 6 7 7 8 7
2 3 3 2 1 -3 -2 -0 -2 -5 -2 -2 -2 -4 1 -1 -0 -2 -4 -4 -4 -3 -8 -3 -3 4 7 6 6 7 6 7 7 7 7 7 6 6 6 6 6 6 7 7
2 2 0 -1 -2 -2 -1 0 -0 2 1 -0 0 -2 -1 -1 -3 -3 -3 -3 -4 -6 -5 -2 -4 7 7 7 7 7 7 7 7 7 6 6 6 6 6 6 6 6 7 7
0 0 2 1 1 0 1 2 2 1 1 1 -0 -2 -0 -3 -3 -2 -3 -4 -5 -3 -2 -3 7 7 6 6 6 6 7 7 7 6 6 6 6 6 7 6 6 5 5 5
0 0 0 -2 -2 -3 -1 -0 1 1 0 2 2 -3 -3 -1 -2 -3 -2 -2 -1 -1 -5 6 7 6 6 5 5 5 5 6 6 5 5 6 6 6 7 7 7 6 5 5
-0 -0 1 1 0 2 1 2 2 2 1 -4 -3 -1 1 -4 -5 -3 -3 -2 -2 5 7 7 7 7 6 5 4 4 4 4 5 5 5 4 4 4 5 6 7 6 6 5
Height
1505 1505 1504 1503 1500 1497 1496 1495 1496 1495 1493 1495 1501 1509 1505 1506 1508 1507 1509 1511 1515 1518 1520 1521 1525 1519 1516 1513 1512 1514 1513 1512 1513 1504 1502 1501 1502 1502 1501 1502 1495 1503 1496 1481
1509 1507 1506 1503 1501 1497 1496 1495 1496 1496 1493 1507 1511 1507 1507 1508 1509 1510 1510 1512 1512 1514 1516 1520 1518 1521 1512 1511 1511 1510 1511 1514 1517 1502 1503 1502 1501 1499 1500 1498 1501 1495 1494 1482
1510 1509 1507 1504 1501 1499 1497 1497 1501 1499 1499 1504 1507 1509 1511 1511 1512 1511 1510 1511 1511 1513 1514 1515 1515 1518 1510 1509 1508 1508 1509 1509 1515 1513 1507 1504 1503 1499 1497 1500 1499 1493 1491 1481
1511 1511 1509 1506 1501 1498 1498 1499 1505 1506 1511 1509 1509 1510 1511 1513 1515 1513 1511 1511 1511 1512 1513 1515 1514 1515 1510 1507 1507 1507 1509 1512 1509 1505 1504 1503 1501 1498 1495 1498 1492 1493 1482 1480
1511 1511 1510 1508 1504 1500 1499 1502 1505 1506 1508 1510 1510 1512 1515 1514 1514 1514 1512 1513 1513 1512 1513 1514 1514 1512 1510 1509 1509 1508 1509 1509 1510 1507 1500 1501 1500 1495 1491 1490 1487 1486 1482 1479
1511 1510 1510 1508 1505 1503 1502 1504 1505 1506 1511 1511 1512 1515 1515 1515 1514 1516 1513 1513 1513 1512 1512 1512 1512 1511 1511 1511 1512 1511 1511 1511 1514 1509 1504 1502 1498 1486 1484 1485 1483 1485 1483 1480
1510 1510 1510 1509 1508 1506 1504 1504 1505 1505 1514 1512 1512 1512 1513 1515 1514 1514 1515 1513 1513 1513 1511 1511 1511 1510 1509 1509 1509 1510 1511 1512 1513 1511 1506 1501 1479 1479 1479 1482 1478 1479 1481 1480
1509 1509 1510 1510 1509 1507 1506 1504 1504 1504 1512 1513 1512 1512 1511 1513 1514 1514 1514 1513 1514 1513 1512 1513 1512 1512 1507 1506 1505 1507 1508 1512 1512 1512 1511 1493 1478 1478 1480 1480 1474 1472 1476 1477
1509 1508 1509 1510 1510 1509 1508 1506 1504 1504 1506 1511 1510 1512 1512 1513 1512 1513 1513 1513 1513 1513 1514 1515 1513 1519 1509 1508 1506 1507 1508 1509 1511 1515 1513 1493 1475 1476 1475 1475 1476 1470 1472 1473
1508 1509 1509 1510 1509 1509 1507 1507 1505 1505 1504 1506 1508 1509 1510 1511 1512 1512 1511 1510 1510 1511 1514 1516 1524 1517 1513 1512 1506 1505 1508 1511 1510 1510 1508 1488 1473 1473 1475 1479 1474 1467 1469 1470
1503 1506 1509 1508 1509 1509 1508 1506 1505 1505 1504 1504 1505 1506 1507 1508 1509 1511 1511 1513 1511 1511 1512 1514 1516 1517 1514 1514 1507 1503 1502 1507 1507 1508 1503 1492 1469 1474 1476 1466 1464 1466 1467 1469
1502 1502 1504 1506 1507 1508 1508 1507 1504 1503 1503 1503 1502 1503 1504 1505 1506 1508 1508 1510 1509 1510 1513 1516 1515 1512 1521 1512 1506 1498 1502 1492 1491 1491 1478 1463 1463 1461 1462 1462 1462 1463 1465 1467
1503 1501 1501 1503 1503 1506 1507 1508 1507 1504 1502 1502 1502 1501 1502 1503 1504 1504 1506 1507 1507 1508 1509 1510 1512 1513 1510 1510 1506 1495 1487 1483 1485 1480 1459 1458 1459 1459 1460 1461 1462 1463 1464 1465
1499 1502 1501 1501 1502 1501 1504 1506 1507 1506 1504 1501 1499 1498 1499 1500 1501 1502 1503 1504 1504 1505 1506 1507 1509 1509 1502 1501 1496 1494 1481 1482 1478 1474 1456 1456 1452 1451 1454 1457 1459 1460 1462 1463
1493 1498 1501 1501 1501 1501 1501 1503 1505 1505 1507 1502 1498 1497 1496 1497 1498 1499 1501 1503 1504 1504 1505 1505 1504 1498 1498 1495 1495 1487 1470 1468 1471 1465 1450 1449 1444 1443 1446 1449 1452 1455 1457 1459
1489 1492 1495 1498 1499 1501 1500 1500 1501 1503 1504 1502 1498 1494 1493 1494 1496 1498 1498 1500 1502 1503 1502 1500 1496 1495 1496 1497 1492 1457 1456 1456 1456 1452 1451 1449 1446 1443 1440 1443 1447 1451 1453 1455
1485 1487 1490 1494 1495 1499 1499 1499 1500 1500 1502 1503 1497 1491 1490 1492 1496 1498 1498 1498 1499 1500 1498 1496 1494 1493 1494 1490 1481 1449 1449 1450 1449 1447 1446 1444 1443 1441 1440 1440 1444 1447 1449 1452
1479 1481 1484 1489 1491 1495 1496 1495 1497 1498 1498 1499 1499 1492 1492 1490 1491 1495 1496 1497 1496 1495 1493 1493 1491 1491 1490 1479 1449 1447 1446 1445 1438 1436 1439 1437 1437 1437 1438 1439 1441 1442 1444 1446
1474 1476 1481 1486 1488 1490 1492 1494 1495 1495 1498 1493 1491 1495 1493 1489 1488 1490 1494 1495 1496 1493 1491 1490 1490 1482 1476 1448 1444 1441 1441 1440 1437 1433 1431 1429 1428 1433 1434 1435 1436 1438 1439 1441
1473 1478 1479 1481 1482 1486 1489 1490 1492 1492 1488 1487 1479 1476 1484 1486 1488 1488 1491 1492 1493 1497 1487 1487 1485 1469 1448 1444 1442 1440 1436 1432 1429 1425 1421 1423 1423 1425 1428 1430 1432 1432 1433 1436
1473 1476 1474 1476 1479 1483 1484 1485 1485 1483 1482 1473 1470 1469 1473 1479 1484 1485 1486 1490 1491 1496 1486 1487 1480 1468 1445 1442 1440 1438 1433 1429 1426 1422 1416 1417 1420 1422 1423 1425 1427 1428 1429 1430
1472 1474 1473 1475 1477 1478 1478 1480 1478 1477 1469 1464 1462 1466 1469 1474 1478 1479 1485 1489 1491 1488 1482 1485 1476 1448 1439 1438 1437 1435 1432 1428 1425 1420 1416 1417 1418 1418 1419 1419 1420 1421 1423 1424
1469 1470 1470 1469 1470 1477 1472 1468 1467 1467 1454 1458 1458 1463 1466 1470 1474 1478 1481 1487 1487 1482 1490 1474 1452 1436 1436 1436 1434 1433 1430 1428 1426 1423 1419 1417 1416 1417 1416 1416 1417 1417 1416 1417
1463 1463 1465 1461 1459 1452 1444 1443 1440 1442 1444 1451 1455 1458 1461 1465 1470 1474 1480 1478 1481 1489 1488 1459 1439 1434 1435 1435 1433 1431 1428 1427 1425 1424 1422 1420 1418 1415 1414 1412 1412 1412 1411 1411
1455 1455 1446 1439 1432 1430 1432 1437 1436 1441 1441 1448 1452 1455 1457 1463 1469 1471 1476 1482 1482 1471 1456 1439 1429 1429 1429 1431 1431 1430 1429 1426 1425 1423 1421 1420 1418 1415 1413 1411 1408 1405 1405 1404
1444 1438 1430 1429 1432 1426 1431 1434 1434 1439 1444 1444 1447 1454 1457 1454 1458 1467 1464 1465 1459 1441 1434 1427 1428 1428 1429 1428 1428 1426 1425 1424 1422 1419 1417 1415 1414 1411 1409 1406 1403 1400 1398 1396
1427 1419 1418 1418 1422 1421 1422 1426 1430 1436 1441 1438 1442 1449 1442 1448 1457 1458 1450 1444 1428 1420 1423 1425 1426 1424 1424 1424 1423 1421 1419 1418 1416 1413 1410 1407 1405 1402 1400 1397 1396 1392 1389 1386
Wind_Speed
11 10 9 11 16 16 5 3 3 12 3 5 3 2 2 3 4 7 3 4 3 3 3 3 2 3 3 1 7 2 3 1 3 4 3 3 2 3 2 1 2 2 2 4
8 9 10 12 17 17 7 3 4 12 3 4 2 2 4 4 4 4 2 2 2 2 4 2 3 3 3 4 3 2 3 1 3 4 2 1 4 2 3 3 1 3 1 5
7 8 11 14 18 13 6 2 3 8 13 8 4 3 3 3 5 4 4 2 2 3 1 1 3 1 2 3 4 4 2 2 3 4 4 2 4 3 3 1 1 3 4 7
6 9 12 19 17 10 4 4 2 2 2 6 4 2 1 3 3 3 5 2 2 3 3 1 1 1 4 2 4 0 2 1 1 6 5 2 3 5 5 1 4 3 4 8
6 9 12 16 17 11 11 3 3 4 3 2 2 5 2 2 1 3 3 4 3 2 3 3 5 3 3 4 3 0 1 2 2 4 6 4 4 8 7 4 4 4 5 3
6 7 8 14 15 11 7 7 6 1 4 2 2 1 1 2 2 3 3 3 2 2 1 3 4 5 6 2 1 2 1 2 1 4 3 5 7 6 6 2 4 2 2 2
7 4 5 11 15 15 10 6 3 3 1 2 1 1 2 3 2 3 0 2 2 1 5 7 6 7 8 7 4 3 2 1 1 3 4 2 5 0 2 4 7 6 4 3
6 3 2 8 12 14 14 9 3 3 3 1 1 4 4 4 3 2 1 0 1 3 2 3 4 4 3 2 4 5 4 3 1 2 2 7 2 4 4 4 5 6 5 3
4 2 2 3 8 11 13 11 5 4 9 4 4 1 0 3 2 1 2 1 1 0 2 1 3 3 3 3 3 1 3 2 2 2 0 3 4 3 5 3 4 9 9 6
3 2 3 3 5 7 11 11 5 2 3 8 7 3 3 2 2 1 2 2 3 1 1 1 3 3 2 3 3 4 2 1 4 4 4 7 6 6 6 3 4 11 10 8
9 6 3 4 4 4 6 8 7 0 2 9 8 6 5 4 2 2 2 2 2 2 2 3 2 3 3 2 4 4 6 5 4 2 2 7 10 5 6 4 3 11 10 8
13 11 9 6 5 4 5 7 6 2 2 4 10 9 7 6 4 2 3 2 1 1 3 1 1 3 0 3 4 1 3 6 3 8 6 4 23 5 13 4 6 10 10 10
17 14 12 9 9 7 5 7 8 6 2 3 7 8 11 9 7 7 4 3 3 2 2 3 1 4 3 3 5 2 5 6 4 2 4 14 15 27 10 13 10 12 12 12
18 18 14 11 11 11 10 7 8 7 5 2 4 9 9 12 11 9 9 5 5 4 4 3 2 2 6 3 3 4 5 7 4 6 12 11 20 27 28 24 15 15 16 16
18 17 18 14 13 12 11 10 9 9 5 3 4 6 11 12 13 11 9 7 6 4 3 2 3 4 2 2 1 4 9 7 5 6 8 3 5 8 28 28 28 21 21 19
18 17 16 17 17 12 8 2 5 8 6 5 3 3 5 11 12 11 10 8 7 5 4 5 4 3 2 1 3 8 14 15 16 7 11 14 10 9 11 30 27 25 23 21
18 17 16 18 18 17 10 4 1 2 5 4 5 2 3 9 9 8 9 9 6 6 4 4 3 3 5 2 4 8 5 11 14 18 21 20 21 12 9 25 25 25 23 22
17 17 15 18 19 18 18 18 11 6 4 4 1 3 3 10 7 5 6 5 6 6 4 3 4 2 3 5 10 18 16 23 22 7 11 22 22 15 13 21 25 28 29 27
11 17 19 17 15 9 10 10 11 12 9 4 5 3 4 9 5 5 6 5 1 3 3 3 4 2 6 8 14 19 24 19 28 24 23 18 22 24 15 18 27 31 31 30
17 23 10 8 10 10 8 7 6 7 9 9 7 7 3 10 7 5 5 3 2 2 3 5 3 4 23 26 24 22 25 23 17 21 20 15 18 25 25 21 22 28 31 30
22 9 6 8 13 12 6 5 5 6 4 9 6 16 6 12 3 3 7 3 1 1 3 3 2 3 5 4 13 15 16 15 17 22 23 19 14 13 17 24 24 24 29 32
11 7 10 11 7 5 3 3 0 4 5 8 10 8 6 7 6 4 4 2 2 5 3 2 3 4 7 8 11 12 14 17 19 20 14 9 14 15 14 15 19 23 24 27
13 7 6 6 5 1 8 8 4 2 8 11 10 4 8 6 5 4 3 3 4 3 2 4 4 5 6 7 13 14 16 19 21 22 21 16 12 14 18 20 17 18 22 23
7 7 5 6 5 5 5 5 4 6 6 19 16 8 4 4 4 4 3 1 3 2 2 6 3 5 7 12 18 21 21 20 22 24 25 24 21 17 15 18 21 22 23 23
8 8 6 8 10 5 6 10 6 8 18 25 10 6 5 2 3 1 3 2 4 5 5 3 10 7 7 11 18 17 16 13 15 20 23 25 26 25 25 21 21 23 26 28
7 10 5 3 3 4 7 12 10 15 26 13 5 3 3 4 4 3 7 6 7 4 4 7 10 4 9 10 17 18 17 15 12 15 18 21 23 23 24 24 24 23 25 27
8 8 20 14 4 8 19 17 15 24 21 3 4 6 8 4 4 3 5 6 4 5 6 8 6 9 14 16 23 26 28 28 27 27 28 28 29 27 26 28 27 25 23 25
Wind_Direction
60 56 47 13 10 15 42 36 43 2 44 49 29 45 33 101 17 48 78 100 115 130 158 140 203 208 243 258 166 196 202 295 285 254 196 241 303 266 249 226 256 226 269 276
53 46 20 11 4 9 16 75 17 19 103 92 11 43 41 75 44 31 52 87 89 163 160 113 228 231 258 248 199 209 174 234 349 341 23 82 261 270 241 242 66 273 305 299
43 19 13 6 358 0 17 66 38 43 55 67 101 86 30 82 49 51 56 92 112 126 113 7 176 278 278 296 238 234 182 228 198 205 226 254 304 307 309 173 173 285 235 287
15 9 9 2 4 13 68 59 69 62 23 21 58 68 67 55 42 33 28 37 41 156 124 86 106 173 291 244 324 119 156 261 245 252 251 286 267 286 309 319 242 226 318 318
353 357 7 13 19 36 64 76 111 85 77 41 62 356 53 100 143 19 340 95 321 337 137 198 192 188 228 231 352 281 5 293 91 277 237 240 265 266 264 242 262 278 305 307
330 349 15 25 31 45 71 77 82 74 8 13 87 326 57 98 153 36 81 155 100 44 227 238 272 271 307 305 327 315 2 160 95 264 5 307 288 226 210 257 233 230 327 305
331 340 35 39 38 44 55 63 84 104 358 83 127 118 86 47 23 128 152 147 149 249 300 302 287 271 254 242 251 196 174 127 161 277 354 282 258 313 174 231 259 211 257 275
351 329 60 51 41 38 34 52 83 111 114 152 356 120 128 122 86 77 164 44 69 329 5 16 357 337 357 184 216 187 177 137 214 275 248 288 274 228 187 180 289 182 192 222
335 345 187 34 19 18 18 29 72 109 129 227 160 147 113 154 154 96 156 143 350 315 102 96 178 223 223 300 333 91 95 99 150 186 221 247 258 161 143 107 285 164 184 211
226 313 212 257 338 345 5 15 34 125 129 168 169 175 178 142 117 148 235 193 177 156 111 140 179 257 206 258 244 188 208 194 203 203 254 281 228 162 144 144 244 166 179 188
199 196 217 231 282 305 340 3 8 274 189 178 194 187 174 168 187 151 142 51 309 38 117 158 208 200 234 281 234 196 186 163 209 129 239 296 157 114 166 216 170 172 169 168
211 204 197 205 232 253 302 335 356 358 224 199 197 208 210 209 205 193 181 169 182 205 84 286 80 232 95 190 277 135 247 196 193 188 218 258 190 189 203 214 202 193 189 180
241 223 212 207 206 221 247 320 328 334 261 221 212 222 211 210 206 196 177 199 189 194 210 172 192 253 135 216 240 249 245 186 224 352 248 228 230 221 206 225 228 221 210 200
243 249 231 222 219 218 228 278 316 322 309 263 223 221 217 214 212 213 211 208 194 195 198 200 195 223 190 231 259 225 219 156 201 267 275 265 257 232 229 224 218 217 214 214
229 244 257 238 235 232 232 246 286 290 295 288 288 258 232 223 214 211 217 213 213 204 187 175 231 225 179 233 313 247 192 193 178 225 276 253 269 241 231 220 220 218 210 208
237 239 244 251 241 237 237 260 257 238 287 296 300 234 230 212 210 215 212 214 219 225 229 229 246 247 226 233 239 250 225 233 244 267 317 267 283 276 243 216 215 215 216 220
238 239 237 235 240 228 205 184 121 259 283 282 297 279 195 193 205 219 220 215 216 216 234 235 249 224 211 244 241 215 192 301 292 282 275 277 258 258 254 215 214 215 217 217
240 236 219 218 221 223 236 233 263 273 252 241 241 274 238 186 175 197 198 209 208 227 252 229 210 207 227 257 250 267 286 309 303 283 263 267 255 282 246 219 212 213 216 216
218 192 186 187 203 210 234 241 246 232 230 228 180 176 249 177 160 163 173 197 209 216 241 242 177 207 226 234 271 288 309 309 300 296 293 270 247 241 254 230 218 220 221 220
166 162 154 183 184 184 184 194 210 220 212 226 227 183 186 167 175 170 146 184 230 237 231 166 217 259 267 269 283 307 310 311 309 300 309 273 250 235 236 243 240 237 234 231
159 186 177 159 160 169 194 207 195 180 239 212 221 193 149 184 134 189 201 182 186 315 231 171 257 267 248 312 321 332 331 325 329 314 299 251 263 271 260 251 253 252 244 240
182 184 137 147 176 185 136 207 257 204 233 192 165 178 156 150 168 133 173 158 50 237 143 109 257 248 255 321 353 11 12 9 4 358 343 290 276 268 274 271 260 257 261 257
161 191 172 186 168 68 188 196 230 221 184 183 162 142 157 140 165 101 120 134 219 131 66 234 233 253 320 356 3 14 13 12 12 13 12 3 317 301 283 276 282 277 264 260
189 179 220 199 198 231 195 198 174 182 163 160 148 121 133 139 134 146 129 179 92 10 272 235 238 160 42 27 20 8 4 12 18 16 11 4 354 337 316 295 284 278 274 273
192 197 219 215 225 209 193 199 159 171 159 155 133 106 142 129 116 164 98 45 253 214 235 234 175 106 70 38 25 18 10 360 7 4 3 1 356 350 340 328 302 282 275 274
218 222 212 201 202 185 194 198 181 172 164 153 145 128 131 199 137 147 213 153 225 244 219 207 166 65 15 357 357 0 354 340 313 321 328 328 329 329 326 324 323 311 290 277
219 221 202 202 245 217 205 196 188 178 171 168 136 176 207 106 103 219 190 208 213 226 194 174 241 289 316 329 336 340 337 329 322 310 306 309 313 312 308 306 308 305 299 285